Weather History for Guriat, Saudi Arabia

Change the Weather History Date:

Wednesday, February 13, 2013

  Actual Average Record
Temperature  
Mean Temperature 52 °F -  
Max Temperature 67 °F 65 °F 69 °F (1999)
Min Temperature 38 °F 41 °F 30 °F (1997)
Degree Days  
Heating Degree Days 12    
Growing Degree Days 2 (Base 50)    
Moisture  
Dew Point 36 °F    
Average Humidity 54    
Maximum Humidity 87    
Minimum Humidity 22    
Precipitation  
Precipitation 0.00 in - - ()
Sea Level Pressure  
Sea Level Pressure 30.13 in    
Wind  
Wind Speed 3 mph ()    
Max Wind Speed 12 mph    
Max Gust Speed -    
Visibility 6.0 miles    
Events      
Averages and records for this station are not official NWS values.
T = Trace of Precipitation, MM = Missing Value Source: Averaged Metar Reports

Daily Weather History Graph

Daily Weather History Graph

Search for Another Location

Airport:

Trip Planner

Search our weather history database for the weather conditions in past years. The results will help you decide how hot, cold, wet, or windy it might be!

Date:

Astronomy

Feb. 13, 2013 Rise Set
Actual Time 7:14 AM AST 6:16 PM AST
Civil Twilight 6:49 AM AST 6:41 PM AST
Nautical Twilight 6:20 AM AST 7:09 PM AST
Astronomical Twilight 5:52 AM AST 7:38 PM AST
Moon 8:48 AM AST (2/13) 9:39 PM AST (2/13)
Length of Visible Light 11h 51m
Length of Day
11h 02m
Waxing Crescent, 11% of the Moon is Illuminated
Feb 13
Waxing Crescent
Feb 17
First Quarter
Feb 25
Full
Mar 5
Last Quarter
Mar 11
New

Hourly Weather History & Observations

Time (AST) Temp. Dew Point Humidity Pressure Visibility Wind Dir Wind Speed Gust Speed Precip Events Conditions
12:00 AM 51 °F 37 °F 49% 30.13 in 6 mi WNW 2.3 mph - -  
12:00 AM 51.8 °F 37.4 °F 58% 30.12 in - WNW 2.3 mph - N/A   Clear
1:00 AM 50.0 °F 37.4 °F 62% 30.12 in - Calm Calm - N/A   Clear
2:00 AM 48.2 °F 37.4 °F 66% 30.12 in - SW 4.6 mph - N/A   Clear
3:00 AM 47 °F 37 °F 60% 30.14 in 6 mi SW 2.3 mph - -  
3:00 AM 46.4 °F 37.4 °F 71% 30.12 in - SW 2.3 mph - N/A   Clear
4:00 AM 46.4 °F 37.4 °F 71% 30.12 in - West 2.3 mph - N/A   Clear
5:00 AM 44.6 °F 37.4 °F 76% 30.12 in - WSW 2.3 mph - N/A   Clear
6:00 AM 42 °F 36 °F 70% 30.14 in 6 mi West 2.3 mph - -  
6:00 AM 41.0 °F 35.6 °F 81% 30.12 in - West 2.3 mph - N/A   Clear
7:00 AM 37.4 °F 33.8 °F 87% 30.15 in - West 2.3 mph - N/A   Clear
8:00 AM 39.2 °F 33.8 °F 81% 30.18 in - West 2.3 mph - N/A   Clear
9:00 AM 42 °F 32 °F 57% 30.21 in 6 mi WNW 2.3 mph - -  
9:00 AM 41.0 °F 32.0 °F 70% 30.18 in - WNW 2.3 mph - N/A   Clear
10:00 AM 44.6 °F 37.4 °F 76% 30.21 in - Calm Calm - N/A   Clear
11:00 AM 51.8 °F 39.2 °F 62% 30.21 in - East 6.9 mph - N/A   Clear
12:00 PM 56 °F 37 °F 38% 30.19 in 6 mi ESE 4.6 mph - -  
12:00 PM 55.4 °F 37.4 °F 51% 30.18 in - ESE 4.6 mph - N/A   Clear
1:00 PM 60.8 °F 37.4 °F 42% 30.15 in - SE 9.2 mph - N/A   Clear
2:00 PM 62.6 °F 35.6 °F 37% 30.12 in - SE 11.5 mph - N/A   Clear
3:00 PM 65 °F 36 °F 22% 30.13 in 6 mi SE 6.9 mph - -  
3:00 PM 64.4 °F 35.6 °F 34% 30.12 in - SE 6.9 mph - N/A   Clear
4:00 PM 66.2 °F 33.8 °F 30% 30.09 in - ESE 11.5 mph - N/A   Clear
5:00 PM 64.4 °F 33.8 °F 32% 30.12 in - ESE 9.2 mph - N/A   Clear
6:00 PM 63 °F 34 °F 22% 30.09 in 6 mi ESE 6.9 mph - -  
6:00 PM 62.6 °F 33.8 °F 34% 30.09 in - ESE 6.9 mph - N/A   Clear
7:00 PM 60.8 °F 35.6 °F 39% 30.09 in - ESE 6.9 mph - N/A   Clear
8:00 PM 59.0 °F 35.6 °F 42% 30.09 in - ESE 6.9 mph - N/A   Clear
9:00 PM 56 °F 39 °F 42% 30.13 in 6 mi East 2.3 mph - -  
9:00 PM 55.4 °F 39.2 °F 54% 30.09 in - East 2.3 mph - N/A   Clear
10:00 PM 55.4 °F 37.4 °F 51% 30.09 in - ENE 4.6 mph - N/A   Clear
11:00 PM 53.6 °F 39.2 °F 58% 30.09 in - ENE 4.6 mph - N/A   Clear